Regional Weather Roundup
Issued by NWS

Home | Current Version | Previous Version | Graphics & Text | Print | Product List | Glossary Off
Versions: 1 2 3 4 5 6 7 8 9 10 11 12 13 14 15 16 17 18 19 20 21 22 23 24 25 26 27 28 29 30 31 32 33 34 35 36 37 38 39 40 41 42 43 44 45 46 47 48 49 50

000
ASUS43 KDMX 280807
RWRIA

WEATHER ROUNDUP FOR IOWA
NATIONAL WEATHER SERVICE DES MOINES IA
300 AM CDT SAT MAR 28 2015

NOTE: "FAIR" INDICATES FEW OR NO CLOUDS BELOW 12,000 FEET WITH NO
SIGNIFICANT WEATHER AND/OR OBSTRUCTIONS TO VISIBILITY.

* - THESE STATIONS ARE NOT NWS STATIONS...THUS NOT UNDER NWS
QUALITY CONTROL.  THEY ALSO DO NOT REPORT WEATHER SUCH
AS PRECIPITATION OR FOG.

IAZ001>003-012>014-020>022-031>034-043>046-280900-
   NORTHWEST IOWA

CITY           SKY/WX    TMP DP  RH WIND       PRES   REMARKS
CARROLL *      CLOUDY    32  27  80 SE3       30.13S
CHEROKEE *     CLOUDY    30  28  93 SE6       30.12S WCI  24
DENISON *      CLOUDY    30  30 100 SE5       30.10S WCI  25
LE MARS *      CLOUDY    32  27  80 SE7G15    30.10F WCI  26
ORANGE CITY *  CLOUDY    30  25  80 SE6       30.09F WCI  24
SHELDON *      CLOUDY    28  28 100 SE10      30.10S WCI  19
SIOUX CITY     CLOUDY    33  24  69 SE13      30.09F WCI  24
SPENCER        CLOUDY    29  25  85 E5        30.13S WCI  24
STORM LAKE *   CLOUDY    28  28 100 SE6       30.12S WCI  22
$$

IAZ055>058-069>071-079>083-090>094-280900-
   SOUTHWEST IOWA

CITY           SKY/WX    TMP DP  RH WIND       PRES   REMARKS
ATLANTIC *     CLOUDY    32  28  86 CALM      30.13R
AUDUBON *      MIX PCPN  30  27  86 CALM      30.13S
CLARINDA *     CLOUDY    34  28  80 SE3       30.13S
COUNCIL BLFS * CLOUDY    32  28  86 SE7G14    30.11R WCI  26
CRESTON *      FLURRIES  32  25  74 E6        30.12S WCI  26
HARLAN  *      CLOUDY    32  32 100 E5        30.15S WCI  27
LAMONI         CLOUDY    35  17  47 SE5       30.12S WCI  31
RED OAK *      CLOUDY    34  28  80 SE6       30.13R WCI  29
SHENANDOAH *   CLOUDY    34  28  80 E10       30.12S WCI  26
$$

IAZ047>049-059>061-072>074-084-280900-
   CENTRAL IOWA

CITY           SKY/WX    TMP DP  RH WIND       PRES   REMARKS
AMES           CLOUDY    29  17  61 E5        30.16R WCI  24
ANKENY *       CLOUDY    30  18  59 CALM      30.16R
CHARITON *     CLOUDY    30  18  59 SE6       30.14S WCI  24
DES MOINES     CLOUDY    34  11  38 SE8       30.16R WCI  27
GRINNELL*      PTCLDY    23  16  74 E6        30.17R WCI  16
KNOXVILLE *    CLOUDY    30  10  43 SE7       30.14S WCI  23
MARSHALLTOWN   PTCLDY    24  17  74 E7        30.16R WCI  16
PELLA *        PTCLDY    27  18  69 SE5       30.17S WCI  21
PERRY *        CLOUDY    34  25  69 S5        30.15S WCI  30
$$

IAZ004>006-015-016-023>025-035-036-280900-
   NORTH CENTRAL IOWA

CITY           SKY/WX    TMP DP  RH WIND       PRES   REMARKS
ALGONA *       CLOUDY    28  21  74 SE9       30.15S WCI  20
CLARION *      CLOUDY    28  19  69 SE8       30.16S WCI  20
ESTHERVILLE    CLOUDY    29  26  89 CALM      30.14R
FORT DODGE *   CLOUDY    30  18  59 E7        30.16R WCI  23
MASON CITY     CLOUDY    25  16  68 SE6       30.18R WCI  18
FOREST CITY *  CLEAR     23  18  80 E3        30.16S
IOWA FALLS *   CLOUDY    27  19  74 E3        30.18R
$$

IAZ007>011-017>019-026>030-037>042-050>054-066-280900-
   NORTHEAST IOWA

CITY           SKY/WX    TMP DP  RH WIND       PRES   REMARKS
CEDAR RAPIDS   MOCLDY    21  14  74 E6        30.18S WCI  13
CHARLES CITY * CLOUDY    23  18  80 E3        30.18S
CLINTON *      PTCLDY    18  12  79 E8        30.24F WCI   7
DECORAH *      MOCLDY    19  10  68 CALM      30.18S
DUBUQUE        CLEAR     17  12  80 CALM      30.19S
MONTICELLO *   CLEAR     19  19 100 CALM      30.20S
OELWEIN *      CLOUDY    25  16  68 SE5       30.19S WCI  19
WATERLOO       MOCLDY    23  15  71 E3        30.19R
$$

IAZ064-065-067-068-078-280900-
   EAST CENTRAL IOWA

CITY           SKY/WX    TMP DP  RH WIND       PRES   REMARKS
DAVENPORT      PTCLDY    24  12  60 SE5       30.21S WCI  18
IOWA CITY      PTCLDY    24  14  65 SE5       30.21S WCI  18
MT. PLEASANT * CLEAR     23  16  74 E7        30.19S WCI  15
MUSCATINE *    PTCLDY    23  16  74 CALM      30.22S
QUAD CITIES    PTCLDY    21  15  78 E3        30.21S
$$

IAZ062-063-075>077-085>089-095>099-280900-
   SOUTHEAST IOWA

CITY           SKY/WX    TMP DP  RH WIND       PRES   REMARKS
BURLINGTON     CLEAR     26  15  63 E3        30.19S
FAIRFIELD *    CLOUDY    23  14  68 E6        30.18S WCI  16
FORT MADISON * CLEAR     27  16  63 SE6       30.20S WCI  20
KEOKUK *       PTCLDY    28  16  59 SE9       30.18F WCI  20
OSKALOOSA *      N/A     25  14  63 E7        30.17S WCI  17
CENTERVILLE *  CLOUDY    28  16  59 SE6       30.16S WCI  22
OTTUMWA        PTCLDY    26  13  57 SE6       30.17R WCI  19
WASHINGTON *   MOCLDY    21  18  86 E5        30.19S WCI  15
$$

ABBREVIATIONS USED IN REMARKS
   TC - TEMPERATURES IN CELSIUS
  WCI - WIND CHILL INDEX
   HX - HEAT INDEX
  VSB - VISIBILITY
$$




USA.gov is the U.S. government's official web portal to all federal, state and local government web resources and services.